| time (UTC) | temp F | wind direction | speed MPH | gust MPH | rain 1hr in | rain 24hr in | rain mn in | humidity % | barometer mb |
| 20260902211547 | 58 | 171 | 0.0 | 0.0 | 0.00 | 0.00 | 0.00 | 82 | 1021.0 |
| 20260902210048 | 59 | 227 | 0.0 | 2.0 | 0.00 | 0.00 | 0.00 | 81 | 1021.0 |
| 20260902204548 | 59 | 162 | 0.0 | 3.0 | 0.00 | 0.00 | 0.00 | 82 | 1021.0 |
| 20260902203048 | 59 | 250 | 1.0 | 3.0 | 0.00 | 0.00 | 0.00 | 82 | 1021.0 |
| 20260902201601 | 59 | 328 | 0.0 | 0.0 | 0.00 | 0.00 | 0.00 | 81 | 1020.9 |
| 20260902200106 | 60 | 276 | 0.0 | 2.0 | 0.00 | 0.00 | 0.00 | 80 | 1020.7 |
| 20260902194545 | 60 | 227 | 0.0 | 2.0 | 0.00 | 0.00 | 0.00 | 79 | 1020.7 |
| 20260902193045 | 60 | 144 | 1.0 | 3.0 | 0.00 | 0.00 | 0.00 | 78 | 1020.6 |
| 20260902191549 | 61 | 188 | 0.0 | 0.0 | 0.00 | 0.00 | 0.00 | 77 | 1020.6 |
| 20260902190057 | 61 | 223 | 0.0 | 3.0 | 0.00 | 0.00 | 0.00 | 73 | 1020.5 |
| 20260902184534 | 62 | 188 | 1.0 | 4.0 | 0.00 | 0.00 | 0.00 | 73 | 1020.2 |
| 20260902183032 | 63 | 239 | 0.0 | 0.0 | 0.00 | 0.00 | 0.00 | 69 | 1019.9 |
| 20260902181533 | 64 | 307 | 0.0 | 1.0 | 0.00 | 0.00 | 0.00 | 65 | 1019.8 |
| 20260902180137 | 65 | 331 | 0.0 | 3.0 | 0.00 | 0.00 | 0.00 | 61 | 1019.7 |
| 20260902174530 | 67 | 5 | 2.0 | 4.0 | 0.00 | 0.00 | 0.00 | 55 | 1019.2 |
| 20260902173029 | 67 | 51 | 3.0 | 9.0 | 0.00 | 0.00 | 0.00 | 54 | 1019.3 |
| 20260902171529 | 67 | 27 | 4.0 | 6.0 | 0.00 | 0.00 | 0.00 | 53 | 1019.3 |
| 20260902170004 | 69 | 46 | 2.0 | 6.0 | 0.00 | 0.00 | 0.00 | 51 | 1019.3 |
| 20260902164503 | 69 | 65 | 3.0 | 8.0 | 0.00 | 0.00 | 0.00 | 51 | 1019.2 |
| 20260902163010 | 70 | 48 | 4.0 | 11.0 | 0.00 | 0.00 | 0.00 | 49 | 1019.1 |
| 20260902161511 | 71 | 45 | 5.0 | 10.0 | 0.00 | 0.00 | 0.00 | 47 | 1018.8 |
| 20260902160014 | 72 | 355 | 7.0 | 13.0 | 0.00 | 0.00 | 0.00 | 46 | 1018.8 |
| 20260902154508 | 73 | 101 | 7.0 | 12.0 | 0.00 | 0.00 | 0.00 | 57 | 1018.7 |
| 20260902153008 | 73 | 10 | 5.0 | 9.0 | 0.00 | 0.00 | 0.00 | 57 | 1018.6 |
| 20260902151507 | 72 | 40 | 6.0 | 10.0 | 0.00 | 0.00 | 0.00 | 57 | 1018.6 |
| 20260902150007 | 73 | 28 | 3.0 | 12.0 | 0.00 | 0.00 | 0.00 | 56 | 1018.6 |
| 20260902144507 | 74 | 45 | 7.0 | 12.0 | 0.00 | 0.00 | 0.00 | 55 | 1018.6 |
| 20260902143005 | 72 | 40 | 6.0 | 10.0 | 0.00 | 0.00 | 0.00 | 58 | 1018.7 |
| 20260902141505 | 72 | 5 | 6.0 | 12.0 | 0.00 | 0.00 | 0.00 | 58 | 1018.8 |
| 20260902140005 | 74 | 21 | 6.0 | 11.0 | 0.00 | 0.00 | 0.00 | 55 | 1018.6 |
| 20260902134505 | 75 | 26 | 6.0 | 9.0 | 0.00 | 0.00 | 0.00 | 52 | 1018.6 |
| 20260902133001 | 75 | 50 | 5.0 | 12.0 | 0.00 | 0.00 | 0.00 | 52 | 1018.7 |
| 20260902131607 | 75 | 82 | 4.0 | 8.0 | 0.00 | 0.00 | 0.00 | 52 | 1018.9 |
| 20260902130059 | 75 | 25 | 6.0 | 10.0 | 0.00 | 0.00 | 0.00 | 55 | 1019.1 |
| 20260902124601 | 74 | 44 | 6.0 | 12.0 | 0.00 | 0.00 | 0.00 | 56 | 1019.2 |
| 20260902123054 | 73 | 40 | 6.0 | 11.0 | 0.00 | 0.00 | 0.00 | 57 | 1019.4 |
| 20260902121552 | 72 | 34 | 4.0 | 10.0 | 0.00 | 0.00 | 0.00 | 54 | 1019.4 |
| 20260902120052 | 73 | 21 | 5.0 | 9.0 | 0.00 | 0.00 | 0.00 | 55 | 1019.5 |
| 20260902114550 | 71 | 31 | 3.0 | 9.0 | 0.00 | 0.00 | 0.00 | 60 | 1019.6 |
| 20260902113106 | 72 | 78 | 7.0 | 10.0 | 0.00 | 0.00 | 0.00 | 57 | 1019.6 |
| 20260902111552 | 71 | 17 | 6.0 | 11.0 | 0.00 | 0.00 | 0.00 | 60 | 1019.7 |
| 20260902110047 | 71 | 351 | 4.0 | 10.0 | 0.00 | 0.00 | 0.00 | 60 | 1019.7 |
| 20260902104545 | 71 | 46 | 5.0 | 11.0 | 0.00 | 0.00 | 0.00 | 60 | 1019.6 |
| 20260902103042 | 70 | 10 | 7.0 | 10.0 | 0.00 | 0.00 | 0.00 | 61 | 1019.8 |
| 20260902101541 | 69 | 17 | 4.0 | 8.0 | 0.00 | 0.00 | 0.00 | 60 | 1019.8 |
| 20260902100038 | 70 | 13 | 3.0 | 5.0 | 0.00 | 0.00 | 0.00 | 60 | 1019.9 |
| 20260902094545 | 69 | 121 | 0.0 | 4.0 | 0.00 | 0.00 | 0.00 | 61 | 1020.0 |
| 20260902093034 | 70 | 311 | 1.0 | 4.0 | 0.00 | 0.00 | 0.00 | 63 | 1020.2 |
| 20260902091541 | 68 | 114 | 0.0 | 2.0 | 0.00 | 0.00 | 0.00 | 60 | 1020.3 |
| 20260902090027 | 67 | 120 | 2.0 | 4.0 | 0.00 | 0.00 | 0.00 | 69 | 1020.4 |
| 20260902084523 | 65 | 355 | 1.0 | 4.0 | 0.00 | 0.00 | 0.00 | 73 | 1020.5 |
| 20260902083019 | 64 | 41 | 0.0 | 3.0 | 0.00 | 0.00 | 0.00 | 73 | 1020.5 |
| 20260902081518 | 63 | 71 | 0.0 | 3.0 | 0.00 | 0.00 | 0.00 | 76 | 1020.7 |
| 20260902080012 | 61 | 5 | 2.0 | 5.0 | 0.00 | 0.00 | 0.00 | 79 | 1020.6 |
| 20260902074508 | 60 | 55 | 1.0 | 5.0 | 0.00 | 0.00 | 0.00 | 81 | 1020.9 |
| 20260902073004 | 58 | 19 | 2.0 | 3.0 | 0.00 | 0.00 | 0.00 | 82 | 1020.9 |
| 20260902071601 | 56 | 78 | 1.0 | 2.0 | 0.00 | 0.00 | 0.00 | 84 | 1020.9 |
| 20260902070101 | 54 | 96 | 0.0 | 1.0 | 0.00 | 0.00 | 0.00 | 88 | 1021.0 |
| 20260902064603 | 52 | 96 | 0.0 | 2.0 | 0.00 | 0.00 | 0.00 | 89 | 1021.1 |
| 20260902063051 | 50 | 134 | 0.0 | 0.0 | 0.00 | 0.00 | 0.00 | 92 | 1021.2 |
| 20260902061551 | 49 | 134 | 0.0 | 2.0 | 0.00 | 0.00 | 0.00 | 93 | 1021.2 |
| 20260902060045 | 46 | 126 | 0.0 | 0.0 | 0.00 | 0.00 | 0.00 | 94 | 1021.1 |
| 20260902054541 | 46 | 126 | 0.0 | 0.0 | 0.00 | 0.00 | 0.00 | 94 | 1021.2 |
| 20260902053043 | 46 | 126 | 0.0 | 0.0 | 0.00 | 0.00 | 0.00 | 93 | 1021.0 |
| 20260902051539 | 46 | 136 | 0.0 | 0.0 | 0.00 | 0.00 | 0.00 | 94 | 1021.0 |
| 20260902050041 | 46 | 119 | 0.0 | 0.0 | 0.00 | 0.00 | 0.00 | 94 | 1021.0 |
| 20260902044537 | 45 | 99 | 0.0 | 0.0 | 0.00 | 0.00 | 0.00 | 93 | 1020.9 |
| 20260902043035 | 46 | 100 | 0.0 | 0.0 | 0.00 | 0.00 | 0.00 | 93 | 1020.7 |
| 20260902041534 | 46 | 100 | 0.0 | 0.0 | 0.00 | 0.00 | 0.00 | 94 | 1020.6 |
| 20260902040033 | 46 | 100 | 0.0 | 0.0 | 0.00 | 0.00 | 0.00 | 94 | 1020.6 |
| 20260902034532 | 46 | 327 | 0.0 | 0.0 | 0.00 | 0.00 | 0.00 | 94 | 1020.7 |
| 20260902033038 | 47 | 204 | 0.0 | 0.0 | 0.00 | 0.00 | 0.00 | 93 | 1020.7 |
| 20260902031532 | 47 | 204 | 0.0 | 0.0 | 0.00 | 0.00 | 0.00 | 93 | 1020.6 |
| 20260902030027 | 47 | 221 | 0.0 | 2.0 | 0.00 | 0.00 | 0.00 | 93 | 1020.6 |
| 20260902024526 | 48 | 252 | 0.0 | 0.0 | 0.00 | 0.00 | 0.00 | 93 | 1020.7 |
| 20260902023025 | 48 | 252 | 0.0 | 0.0 | 0.00 | 0.00 | 0.00 | 93 | 1020.8 |
| 20260902021531 | 49 | 236 | 0.0 | 0.0 | 0.00 | 0.00 | 0.00 | 93 | 1020.8 |
| 20260902020023 | 48 | 236 | 0.0 | 0.0 | 0.00 | 0.00 | 0.00 | 93 | 1020.7 |
| 20260902014533 | 49 | 207 | 0.0 | 0.0 | 0.00 | 0.00 | 0.00 | 93 | 1020.8 |
| 20260902013020 | 49 | 207 | 0.0 | 3.0 | 0.00 | 0.00 | 0.00 | 93 | 1021.0 |
| 20260902011532 | 49 | 213 | 0.0 | 0.0 | 0.00 | 0.00 | 0.00 | 93 | 1021.0 |
| 20260902010027 | 50 | 229 | 0.0 | 2.0 | 0.00 | 0.00 | 0.00 | 93 | 1021.1 |
| 20260902004521 | 50 | 172 | 0.0 | 0.0 | 0.00 | 0.00 | 0.00 | 93 | 1021.1 |
| 20260902003016 | 50 | 172 | 0.0 | 0.0 | 0.00 | 0.00 | 0.00 | 92 | 1021.1 |
| 20260902001515 | 50 | 227 | 0.0 | 0.0 | 0.00 | 0.00 | 0.00 | 92 | 1021.1 |
| 20260902000021 | 51 | 227 | 0.0 | 1.0 | 0.00 | 0.00 | 0.00 | 92 | 1021.1 |
| 20260901234533 | 50 | 133 | 0.0 | 0.0 | 0.00 | 0.00 | 0.00 | 92 | 1021.0 |
| 20260901233012 | 50 | 195 | 0.0 | 0.0 | 0.00 | 0.00 | 0.00 | 92 | 1021.1 |
| 20260901231512 | 51 | 195 | 0.0 | 0.0 | 0.00 | 0.00 | 0.00 | 91 | 1021.1 |
| 20260901230009 | 52 | 226 | 0.0 | 2.0 | 0.00 | 0.00 | 0.00 | 91 | 1021.1 |
| 20260901224507 | 52 | 210 | 1.0 | 3.0 | 0.00 | 0.00 | 0.00 | 90 | 1021.1 |
| 20260901223006 | 53 | 171 | 0.0 | 2.0 | 0.00 | 0.00 | 0.00 | 91 | 1021.0 |
| 20260901221511 | 53 | 168 | 0.0 | 2.0 | 0.00 | 0.00 | 0.00 | 90 | 1021.0 |
| 20260901220002 | 53 | 185 | 0.0 | 0.0 | 0.00 | 0.00 | 0.00 | 90 | 1021.0 |
| 20260901214502 | 54 | 214 | 0.0 | 0.0 | 0.00 | 0.00 | 0.00 | 89 | 1020.9 |
| 20260901213002 | 54 | 214 | 0.0 | 0.0 | 0.00 | 0.00 | 0.00 | 88 | 1020.9 |